Time,TemperatureF,DewpointF,PressureIn,WindDirection,WindDirectionDegrees,WindSpeedMPH,WindSpeedGustMPH,Humidity,HourlyPrecipIn,Conditions,Clouds,dailyrainin,SoftwareType,DateUTC
2013-01-22 00:02:00,23.0,6.0,-100.00,SSE,151,1.0,2.0,48,-99.99,,,-99.99,,2013-01-22 07:02:00,
2013-01-22 00:22:00,22.0,6.0,-100.00,ESE,115,0.0,1.0,50,-99.99,,,-99.99,,2013-01-22 07:22:00,
2013-01-22 01:32:00,23.0,5.0,-100.00,SSW,197,0.0,2.0,45,-99.99,,,-99.99,,2013-01-22 08:32:00,
2013-01-22 01:42:00,23.0,5.0,-100.00,SSW,197,0.0,2.0,45,-99.99,,,-99.99,,2013-01-22 08:42:00,
2013-01-22 01:52:00,24.0,4.0,-100.00,South,178,2.0,5.0,42,-99.99,,,-99.99,,2013-01-22 08:52:00,
2013-01-22 02:02:00,22.0,3.0,-100.00,SSE,165,1.0,2.0,44,-99.99,,,-99.99,,2013-01-22 09:02:00,
2013-01-22 02:22:00,24.0,3.0,-100.00,SSW,193,1.0,2.0,40,-99.99,,,-99.99,,2013-01-22 09:22:00,
2013-01-22 02:32:00,23.0,3.0,-100.00,ESE,118,1.0,3.0,41,-99.99,,,-99.99,,2013-01-22 09:32:00,
2013-01-22 02:52:00,23.0,4.0,-100.00,South,178,0.0,2.0,43,-99.99,,,-99.99,,2013-01-22 09:52:00,
2013-01-22 03:02:00,24.0,2.0,-100.00,South,170,1.0,3.0,38,-99.99,,,-99.99,,2013-01-22 10:02:00,
2013-01-22 03:11:00,24.0,2.0,-100.00,South,170,1.0,3.0,38,-99.99,,,-99.99,,2013-01-22 10:11:00,
2013-01-22 03:22:00,24.0,2.0,-100.00,ESE,121,1.0,3.0,38,-99.99,,,-99.99,,2013-01-22 10:22:00,
2013-01-22 03:32:00,25.0,3.0,-100.00,South,169,0.0,2.0,38,-99.99,,,-99.99,,2013-01-22 10:32:00,
2013-01-22 03:42:00,25.0,3.0,-100.00,South,169,0.0,2.0,38,-99.99,,,-99.99,,2013-01-22 10:42:00,
2013-01-22 03:52:00,24.0,3.0,-100.00,South,179,0.0,1.0,39,-99.99,,,-99.99,,2013-01-22 10:52:00,
2013-01-22 04:02:00,24.0,3.0,-100.00,SSE,153,1.0,3.0,40,-99.99,,,-99.99,,2013-01-22 11:02:00,
2013-01-22 04:12:00,24.0,3.0,-100.00,SSE,153,1.0,3.0,40,-99.99,,,-99.99,,2013-01-22 11:12:00,
2013-01-22 04:22:00,23.0,3.0,-100.00,South,173,1.0,2.0,41,-99.99,,,-99.99,,2013-01-22 11:22:00,
2013-01-22 04:32:00,24.0,2.0,-100.00,SSE,159,1.0,2.0,37,-99.99,,,-99.99,,2013-01-22 11:32:00,
2013-01-22 04:42:00,24.0,2.0,-100.00,SSE,159,1.0,2.0,37,-99.99,,,-99.99,,2013-01-22 11:42:00,
2013-01-22 04:53:00,25.0,1.0,-100.00,SSW,213,1.0,2.0,35,-99.99,,,-99.99,,2013-01-22 11:53:00,
2013-01-22 05:03:00,24.0,1.0,-100.00,SE,124,0.0,1.0,36,-99.99,,,-99.99,,2013-01-22 12:03:00,
2013-01-22 05:12:00,24.0,1.0,-100.00,SE,124,0.0,1.0,36,-99.99,,,-99.99,,2013-01-22 12:12:00,
2013-01-22 05:22:00,24.0,2.0,-100.00,South,181,1.0,2.0,38,-99.99,,,-99.99,,2013-01-22 12:22:00,
2013-01-22 05:32:00,24.0,2.0,-100.00,South,181,1.0,2.0,38,-99.99,,,-99.99,,2013-01-22 12:32:00,
2013-01-22 05:43:00,24.0,2.0,-100.00,South,181,1.0,2.0,38,-99.99,,,-99.99,,2013-01-22 12:43:00,
2013-01-22 05:53:00,26.0,0.0,-100.00,South,177,1.0,2.0,31,-99.99,,,-99.99,,2013-01-22 12:53:00,
2013-01-22 06:03:00,24.0,2.0,-100.00,West,277,0.0,1.0,38,-99.99,,,-99.99,,2013-01-22 13:03:00,
2013-01-22 06:13:00,24.0,2.0,-100.00,West,277,0.0,1.0,38,-99.99,,,-99.99,,2013-01-22 13:13:00,
2013-01-22 06:23:00,23.0,2.0,-100.00,SSE,165,0.0,1.0,39,-99.99,,,-99.99,,2013-01-22 13:23:00,
2013-01-22 06:33:00,24.0,2.0,-100.00,South,172,0.0,1.0,38,-99.99,,,-99.99,,2013-01-22 13:33:00,
2013-01-22 06:42:00,24.0,2.0,-100.00,South,172,0.0,1.0,38,-99.99,,,-99.99,,2013-01-22 13:42:00,
2013-01-22 06:53:00,24.0,4.0,-100.00,ESE,122,1.0,2.0,41,-99.99,,,-99.99,,2013-01-22 13:53:00,
2013-01-22 07:02:00,24.0,4.0,-100.00,South,191,1.0,2.0,41,-99.99,,,-99.99,,2013-01-22 14:02:00,
2013-01-22 07:12:00,24.0,4.0,-100.00,South,191,1.0,2.0,41,-99.99,,,-99.99,,2013-01-22 14:12:00,
2013-01-22 07:23:00,24.0,2.0,-100.00,SSE,162,1.0,2.0,37,-99.99,,,-99.99,,2013-01-22 14:23:00,
2013-01-22 07:33:00,23.0,2.0,-100.00,ESE,104,0.0,1.0,40,-99.99,,,-99.99,,2013-01-22 14:33:00,
2013-01-22 07:43:00,23.0,2.0,-100.00,ESE,104,0.0,1.0,40,-99.99,,,-99.99,,2013-01-22 14:43:00,
2013-01-22 07:53:00,23.0,3.0,-100.00,South,182,0.0,1.0,41,-99.99,,,-99.99,,2013-01-22 14:53:00,
2013-01-22 08:03:00,24.0,3.0,-100.00,SSW,197,1.0,2.0,40,-99.99,,,-99.99,,2013-01-22 15:03:00,
2013-01-22 08:12:00,24.0,3.0,-100.00,SSW,197,1.0,2.0,40,-99.99,,,-99.99,,2013-01-22 15:12:00,
2013-01-22 08:23:00,26.0,1.0,-100.00,South,185,2.0,4.0,33,-99.99,,,-99.99,,2013-01-22 15:23:00,
2013-01-22 08:33:00,28.0,3.0,-100.00,South,189,2.0,3.0,33,-99.99,,,-99.99,,2013-01-22 15:33:00,
2013-01-22 08:43:00,28.0,3.0,-100.00,South,189,2.0,3.0,33,-99.99,,,-99.99,,2013-01-22 15:43:00,
2013-01-22 08:52:00,27.0,3.0,-100.00,SSE,167,1.0,2.0,35,-99.99,,,-99.99,,2013-01-22 15:52:00,
2013-01-22 09:03:00,25.0,4.0,-100.00,SE,125,1.0,1.0,40,-99.99,,,-99.99,,2013-01-22 16:03:00,
2013-01-22 09:13:00,25.0,4.0,-100.00,SE,125,1.0,1.0,40,-99.99,,,-99.99,,2013-01-22 16:13:00,
2013-01-22 09:23:00,27.0,4.0,-100.00,South,182,2.0,3.0,36,-99.99,,,-99.99,,2013-01-22 16:23:00,
2013-01-22 09:33:00,26.0,3.0,-100.00,South,185,2.0,4.0,37,-99.99,,,-99.99,,2013-01-22 16:33:00,
2013-01-22 09:43:00,26.0,3.0,-100.00,South,185,2.0,4.0,37,-99.99,,,-99.99,,2013-01-22 16:43:00,
2013-01-22 09:53:00,26.0,4.0,-100.00,South,177,0.0,2.0,39,-99.99,,,-99.99,,2013-01-22 16:53:00,
2013-01-22 10:03:00,25.0,6.0,-100.00,SE,145,0.0,1.0,43,-99.99,,,-99.99,,2013-01-22 17:03:00,
2013-01-22 10:12:00,25.0,6.0,-100.00,SE,145,0.0,1.0,43,-99.99,,,-99.99,,2013-01-22 17:12:00,
2013-01-22 10:23:00,25.0,5.0,-100.00,SE,126,0.0,1.0,41,-99.99,,,-99.99,,2013-01-22 17:23:00,
2013-01-22 10:33:00,27.0,4.0,-100.00,SSE,163,0.0,1.0,37,-99.99,,,-99.99,,2013-01-22 17:33:00,
2013-01-22 10:43:00,27.0,4.0,-100.00,SSE,163,0.0,1.0,37,-99.99,,,-99.99,,2013-01-22 17:43:00,
2013-01-22 10:53:00,28.0,6.0,-100.00,ESE,123,0.0,2.0,38,-99.99,,,-99.99,,2013-01-22 17:53:00,
2013-01-22 11:03:00,32.0,3.0,-100.00,South,187,2.0,3.0,29,-99.99,,,-99.99,,2013-01-22 18:03:00,
2013-01-22 11:12:00,32.0,3.0,-100.00,South,187,2.0,3.0,29,-99.99,,,-99.99,,2013-01-22 18:12:00,
2013-01-22 11:23:00,34.0,5.0,-100.00,South,188,1.0,2.0,29,-99.99,,,-99.99,,2013-01-22 18:23:00,
2013-01-22 11:33:00,36.0,5.0,-100.00,South,191,1.0,2.0,27,-99.99,,,-99.99,,2013-01-22 18:33:00,
2013-01-22 11:43:00,36.0,5.0,-100.00,South,191,1.0,2.0,27,-99.99,,,-99.99,,2013-01-22 18:43:00,
2013-01-22 11:53:00,36.0,9.0,-100.00,East,100,0.0,2.0,32,-99.99,,,-99.99,,2013-01-22 18:53:00,
2013-01-22 12:03:00,36.0,10.0,-100.00,ENE,61,0.0,2.0,33,-99.99,,,-99.99,,2013-01-22 19:03:00,
2013-01-22 12:23:00,40.0,9.0,-100.00,East,81,0.0,1.0,27,-99.99,,,-99.99,,2013-01-22 19:23:00,
2013-01-22 12:33:00,40.0,9.0,-100.00,East,81,0.0,1.0,27,-99.99,,,-99.99,,2013-01-22 19:33:00,
2013-01-22 12:43:00,40.0,9.0,-100.00,East,81,0.0,1.0,27,-99.99,,,-99.99,,2013-01-22 19:43:00,
2013-01-22 12:54:00,43.0,10.0,-100.00,South,170,1.0,2.0,26,-99.99,,,-99.99,,2013-01-22 19:54:00,
2013-01-22 13:03:00,47.0,13.0,-100.00,South,178,0.0,0.0,25,-99.99,,,-99.99,,2013-01-22 20:03:00,
2013-01-22 13:12:00,47.0,13.0,-100.00,South,178,0.0,0.0,25,-99.99,,,-99.99,,2013-01-22 20:12:00,
2013-01-22 13:23:00,46.0,13.0,-100.00,SSE,151,0.0,1.0,26,-99.99,,,-99.99,,2013-01-22 20:23:00,
2013-01-22 13:33:00,44.0,8.0,-100.00,WNW,282,0.0,1.0,22,-99.99,,,-99.99,,2013-01-22 20:33:00,
2013-01-22 13:42:00,44.0,8.0,-100.00,WNW,282,0.0,1.0,22,-99.99,,,-99.99,,2013-01-22 20:42:00,
2013-01-22 13:53:00,43.0,7.0,-100.00,West,277,0.0,1.0,22,-99.99,,,-99.99,,2013-01-22 20:53:00,
2013-01-22 14:03:00,46.0,9.0,-100.00,SW,218,0.0,1.0,22,-99.99,,,-99.99,,2013-01-22 21:03:00,
2013-01-22 14:13:00,46.0,9.0,-100.00,SW,218,0.0,1.0,22,-99.99,,,-99.99,,2013-01-22 21:13:00,
2013-01-22 14:22:00,49.0,10.0,-100.00,West,276,0.0,1.0,20,-99.99,,,-99.99,,2013-01-22 21:22:00,
2013-01-22 14:33:00,43.0,9.0,-100.00,SW,223,1.0,2.0,24,-99.99,,,-99.99,,2013-01-22 21:33:00,
2013-01-22 14:43:00,43.0,9.0,-100.00,SW,223,1.0,2.0,24,-99.99,,,-99.99,,2013-01-22 21:43:00,
2013-01-22 14:52:00,40.0,8.0,-100.00,WSW,240,0.0,1.0,26,-99.99,,,-99.99,,2013-01-22 21:52:00,
2013-01-22 15:02:00,38.0,7.0,-100.00,SW,219,0.0,1.0,27,-99.99,,,-99.99,,2013-01-22 22:02:00,
2013-01-22 15:12:00,38.0,7.0,-100.00,SW,219,0.0,1.0,27,-99.99,,,-99.99,,2013-01-22 22:12:00,
2013-01-22 15:22:00,36.0,8.0,-100.00,SSE,165,1.0,2.0,31,-99.99,,,-99.99,,2013-01-22 22:22:00,
2013-01-22 15:32:00,36.0,8.0,-100.00,SSE,165,1.0,2.0,31,-99.99,,,-99.99,,2013-01-22 22:32:00,
2013-01-22 15:53:00,35.0,8.0,-100.00,SW,226,0.0,0.0,32,-99.99,,,-99.99,,2013-01-22 22:53:00,
2013-01-22 16:02:00,33.0,9.0,-100.00,SW,235,0.0,1.0,36,-99.99,,,-99.99,,2013-01-22 23:02:00,
2013-01-22 16:23:00,33.0,13.0,-100.00,SW,222,0.0,1.0,43,-99.99,,,-99.99,,2013-01-22 23:23:00,
2013-01-22 16:33:00,32.0,15.0,-100.00,South,177,0.0,2.0,48,-99.99,,,-99.99,,2013-01-22 23:33:00,
2013-01-22 16:52:00,32.0,15.0,-100.00,East,94,0.0,1.0,49,-99.99,,,-99.99,,2013-01-22 23:52:00,
2013-01-22 17:02:00,31.0,15.0,-100.00,South,189,0.0,1.0,50,-99.99,,,-99.99,,2013-01-23 00:02:00,
2013-01-22 17:22:00,32.0,14.0,-100.00,SSW,205,1.0,2.0,46,-99.99,,,-99.99,,2013-01-23 00:22:00,
2013-01-22 17:33:00,32.0,13.0,-100.00,South,188,0.0,1.0,45,-99.99,,,-99.99,,2013-01-23 00:33:00,
2013-01-22 18:02:00,32.0,12.0,-100.00,South,184,1.0,3.0,42,-99.99,,,-99.99,,2013-01-23 01:02:00,
2013-01-22 18:13:00,32.0,12.0,-100.00,South,184,1.0,3.0,42,-99.99,,,-99.99,,2013-01-23 01:13:00,
2013-01-22 18:22:00,32.0,10.0,-100.00,SSW,197,2.0,2.0,39,-99.99,,,-99.99,,2013-01-23 01:22:00,
2013-01-22 18:32:00,32.0,10.0,-100.00,SSW,197,2.0,2.0,39,-99.99,,,-99.99,,2013-01-23 01:32:00,
2013-01-22 18:43:00,32.0,10.0,-100.00,SSW,197,2.0,2.0,39,-99.99,,,-99.99,,2013-01-23 01:43:00,
2013-01-22 18:53:00,31.0,7.0,-100.00,SSW,203,3.0,4.0,36,-99.99,,,-99.99,,2013-01-23 01:53:00,
2013-01-22 19:03:00,31.0,5.0,-100.00,SSW,201,2.0,3.0,33,-99.99,,,-99.99,,2013-01-23 02:03:00,
2013-01-22 19:12:00,31.0,5.0,-100.00,SSW,201,2.0,3.0,33,-99.99,,,-99.99,,2013-01-23 02:12:00,
2013-01-22 19:22:00,31.0,7.0,-100.00,South,183,2.0,2.0,35,-99.99,,,-99.99,,2013-01-23 02:22:00,
2013-01-22 19:32:00,32.0,6.0,-100.00,South,184,1.0,2.0,33,-99.99,,,-99.99,,2013-01-23 02:32:00,
2013-01-22 19:42:00,32.0,6.0,-100.00,South,184,1.0,2.0,33,-99.99,,,-99.99,,2013-01-23 02:42:00,
2013-01-22 19:53:00,31.0,5.0,-100.00,SSW,194,1.0,3.0,33,-99.99,,,-99.99,,2013-01-23 02:53:00,
2013-01-22 20:02:00,32.0,6.0,-100.00,South,189,2.0,3.0,33,-99.99,,,-99.99,,2013-01-23 03:02:00,
2013-01-22 20:12:00,32.0,6.0,-100.00,South,189,2.0,3.0,33,-99.99,,,-99.99,,2013-01-23 03:12:00,
2013-01-22 20:22:00,32.0,6.0,-100.00,South,179,2.0,2.0,33,-99.99,,,-99.99,,2013-01-23 03:22:00,
2013-01-22 20:32:00,32.0,7.0,-100.00,SSW,192,1.0,2.0,35,-99.99,,,-99.99,,2013-01-23 03:32:00,
2013-01-22 20:42:00,32.0,7.0,-100.00,SSW,192,1.0,2.0,35,-99.99,,,-99.99,,2013-01-23 03:42:00,
2013-01-22 20:52:00,32.0,6.0,-100.00,South,174,1.0,2.0,32,-99.99,,,-99.99,,2013-01-23 03:52:00,
2013-01-22 21:02:00,36.0,5.0,-100.00,South,179,2.0,3.0,27,-99.99,,,-99.99,,2013-01-23 04:02:00,
2013-01-22 21:12:00,36.0,5.0,-100.00,South,179,2.0,3.0,27,-99.99,,,-99.99,,2013-01-23 04:12:00,
2013-01-22 21:22:00,34.0,7.0,-100.00,SSW,199,2.0,3.0,31,-99.99,,,-99.99,,2013-01-23 04:22:00,
2013-01-22 21:32:00,37.0,7.0,-100.00,SSW,192,3.0,4.0,28,-99.99,,,-99.99,,2013-01-23 04:32:00,
2013-01-22 21:43:00,37.0,7.0,-100.00,SSW,192,3.0,4.0,28,-99.99,,,-99.99,,2013-01-23 04:43:00,
2013-01-22 21:52:00,38.0,7.0,-100.00,South,187,3.0,4.0,27,-99.99,,,-99.99,,2013-01-23 04:52:00,
2013-01-22 22:03:00,40.0,7.0,-100.00,SSW,197,3.0,5.0,25,-99.99,,,-99.99,,2013-01-23 05:03:00,
2013-01-22 22:12:00,40.0,7.0,-100.00,SSW,197,3.0,5.0,25,-99.99,,,-99.99,,2013-01-23 05:12:00,
2013-01-22 22:22:00,36.0,8.0,-100.00,SSW,196,3.0,4.0,30,-99.99,,,-99.99,,2013-01-23 05:22:00,
2013-01-22 22:33:00,39.0,7.0,-100.00,SW,216,2.0,4.0,26,-99.99,,,-99.99,,2013-01-23 05:33:00,
2013-01-22 22:43:00,39.0,7.0,-100.00,SW,216,2.0,4.0,26,-99.99,,,-99.99,,2013-01-23 05:43:00,
2013-01-22 22:52:00,36.0,8.0,-100.00,SW,226,2.0,3.0,30,-99.99,,,-99.99,,2013-01-23 05:52:00,
2013-01-22 23:02:00,38.0,9.0,-100.00,WSW,240,2.0,3.0,30,-99.99,,,-99.99,,2013-01-23 06:02:00,
2013-01-22 23:12:00,38.0,9.0,-100.00,WSW,240,2.0,3.0,30,-99.99,,,-99.99,,2013-01-23 06:12:00,
2013-01-22 23:22:00,37.0,9.0,-100.00,SW,223,2.0,4.0,31,-99.99,,,-99.99,,2013-01-23 06:22:00,
2013-01-22 23:32:00,37.0,9.0,-100.00,SW,223,2.0,4.0,31,-99.99,,,-99.99,,2013-01-23 06:32:00,
2013-01-22 23:42:00,37.0,9.0,-100.00,SW,223,2.0,4.0,31,-99.99,,,-99.99,,2013-01-23 06:42:00,
2013-01-22 23:53:00,37.0,9.0,-100.00,SSW,199,2.0,2.0,31,-99.99,,,-99.99,,2013-01-23 06:53:00,